OneWeb SL0506

operational
NORAD ID: 54124 Int'l Des: 2022-138 Owner: ONEWEBN Country: UK Constellation: oneweb
LEOCIRCULARPOLARONEWEB_TYPE

关于 OneWeb SL0506

正在加载描述...

实时位置

正在加载3D地球...

即将过境

高度历史

Altitude vs Time

uPlot chart will show altitude changes over time

两行轨道根数

1 54124U 22138M 25260.84172516 .00000039 00000-0 66255-4 0 9991
2 54124 87.9290 359.1016 0001657 97.6032 262.5289 13.19725628140883
Epoch: Sep 17, 2025 • Age: 15 hours

当前状态

高度 1194.8 km
速度 7.26 km/s
星下点 58.91°N, 161.05°W
发射日期 Oct 22, 2022
运行时间 2.9 years
类型 internet

技术详情

分类 Payload
质量 148.00 kg
干质量 140.00 kg
总质量 148.00 kg
长度 1.30 m
直径 1.00 m
跨度 5.00 m
形状 Trapezoid+2 pan
制造商 ONEWUS
平台类型 ARROW
阶段状态 In Orbit
所有者/国家 ONEWEBN/UK

大型星座

Loading constellations...